CCM69PM LFKJ-LFML

Flight info

Callsign CCM69PM
Flight time 0h 42m
Altitude 24000
Route TINOT
Aircraft A320/M-SDE3FGHIRWY/LB1

Departure

Time 2026-05-04 04:49
Airport Ajaccio Napoléon Bonaparte airport (LFKJ)

Arrival

Time 2026-05-04 05:31
Airport Marseille Provence Airport (LFML)
Time Latitude Longitude Altitude Speed Heading
2026-05-04 04:27 41.92026 8.79605 24 ft 0 kts 345°
2026-05-04 04:44 41.92038 8.79607 21 ft 0 kts 14°
2026-05-04 04:44 41.92040 8.79610 21 ft 2 kts 29°
2026-05-04 04:45 41.92023 8.79681 21 ft 3 kts 86°
2026-05-04 04:45 41.92088 8.79722 23 ft 18 kts 29°
2026-05-04 04:45 41.92206 8.79795 22 ft 20 kts 24°
2026-05-04 04:47 41.92949 8.80510 25 ft 23 kts 125°
2026-05-04 04:47 41.92867 8.80541 27 ft 0 kts 203°
2026-05-04 04:49 41.91934 8.79958 25 ft 140 kts 205°
2026-05-04 04:49 41.91013 8.79381 543 ft 136 kts 204°
2026-05-04 04:49 41.90237 8.78694 986 ft 147 kts 238°
2026-05-04 04:49 41.89772 8.77367 1315 ft 163 kts 244°
2026-05-04 04:50 41.89235 8.76021 1858 ft 167 kts 240°
2026-05-04 04:50 41.88615 8.74575 2050 ft 194 kts 240°
2026-05-04 04:50 41.87876 8.72882 2253 ft 224 kts 240°
2026-05-04 04:50 41.87053 8.71007 2698 ft 247 kts 238°
2026-05-04 04:51 41.86148 8.68954 3404 ft 260 kts 238°
2026-05-04 04:51 41.85216 8.66846 4279 ft 266 kts 238°
2026-05-04 04:51 41.84262 8.64691 5201 ft 270 kts 238°
2026-05-04 04:51 41.83347 8.62502 6109 ft 274 kts 245°
2026-05-04 04:52 41.82830 8.60028 7003 ft 280 kts 261°
2026-05-04 04:52 41.82873 8.57398 7853 ft 287 kts 278°
2026-05-04 04:52 41.83490 8.54789 8711 ft 293 kts 289°
2026-05-04 04:52 41.84223 8.52255 9561 ft 297 kts 289°
2026-05-04 04:53 41.84967 8.49646 10309 ft 304 kts 289°
2026-05-04 04:53 41.85748 8.46889 10602 ft 328 kts 289°
2026-05-04 04:53 41.86582 8.43934 10883 ft 348 kts 289°
2026-05-04 04:53 41.87451 8.40862 11538 ft 355 kts 289°
2026-05-04 04:54 41.88329 8.37765 12360 ft 356 kts 289°
2026-05-04 04:54 41.89208 8.34655 13223 ft 356 kts 290°
2026-05-04 04:54 41.90081 8.31561 14080 ft 355 kts 289°
2026-05-04 04:54 41.90961 8.28446 14788 ft 357 kts 289°
2026-05-04 04:55 41.91843 8.25317 15447 ft 360 kts 289°
2026-05-04 04:55 41.92730 8.22168 16092 ft 363 kts 289°
2026-05-04 04:55 41.93626 8.18982 16732 ft 366 kts 289°
2026-05-04 04:55 41.94527 8.15762 17363 ft 369 kts 289°
2026-05-04 04:56 41.95432 8.12522 17991 ft 373 kts 289°
2026-05-04 04:56 41.96351 8.09239 18590 ft 376 kts 289°
2026-05-04 04:56 41.97275 8.05937 19132 ft 379 kts 289°
2026-05-04 04:56 41.98205 8.02609 19687 ft 382 kts 289°
2026-05-04 04:57 41.99142 7.99252 20248 ft 385 kts 289°
2026-05-04 04:57 42.00085 7.95860 20804 ft 388 kts 288°
2026-05-04 04:57 42.01032 7.92444 21322 ft 392 kts 288°
2026-05-04 04:57 42.01993 7.88987 21844 ft 395 kts 288°
2026-05-04 04:58 42.02958 7.85513 22369 ft 398 kts 288°
2026-05-04 04:58 42.03931 7.82005 22865 ft 401 kts 288°
2026-05-04 04:58 42.04905 7.78486 23355 ft 403 kts 288°
2026-05-04 04:58 42.05886 7.74931 23804 ft 406 kts 288°
2026-05-04 04:59 42.06868 7.71363 24025 ft 407 kts 288°
2026-05-04 04:59 42.07843 7.67812 24079 ft 412 kts 288°
2026-05-04 04:59 42.08839 7.64185 24084 ft 413 kts 288°
2026-05-04 04:59 42.09848 7.60507 24083 ft 414 kts 288°
2026-05-04 05:00 42.10846 7.56869 24085 ft 414 kts 287°
2026-05-04 05:00 42.11830 7.53282 24087 ft 415 kts 287°
2026-05-04 05:00 42.13845 7.45901 24089 ft 429 kts 287°
2026-05-04 05:01 42.14880 7.42090 24087 ft 436 kts 287°
2026-05-04 05:01 42.15927 7.38236 24084 ft 438 kts 287°
2026-05-04 05:01 42.16975 7.34378 24085 ft 439 kts 287°
2026-05-04 05:01 42.18025 7.30505 24085 ft 439 kts 287°
2026-05-04 05:02 42.19074 7.26632 24082 ft 440 kts 287°
2026-05-04 05:02 42.20120 7.22758 24082 ft 440 kts 287°
2026-05-04 05:02 42.21166 7.18882 24081 ft 440 kts 287°
2026-05-04 05:02 42.22211 7.15013 24082 ft 440 kts 287°
2026-05-04 05:03 42.23258 7.11127 24081 ft 440 kts 287°
2026-05-04 05:03 42.24299 7.07253 24080 ft 439 kts 287°
2026-05-04 05:04 42.27415 6.95609 24068 ft 439 kts 287°
2026-05-04 05:04 42.28444 6.91748 24066 ft 439 kts 287°
2026-05-04 05:04 42.29474 6.87885 24064 ft 439 kts 287°
2026-05-04 05:06 42.36671 6.60708 24052 ft 439 kts 287°
2026-05-04 05:06 42.37692 6.56830 24054 ft 439 kts 287°
2026-05-04 05:06 42.38712 6.52943 23866 ft 439 kts 287°
2026-05-04 05:07 42.39718 6.49100 23652 ft 438 kts 287°
2026-05-04 05:07 42.40735 6.45215 23432 ft 436 kts 287°
2026-05-04 05:07 42.41727 6.41431 23189 ft 433 kts 287°
2026-05-04 05:09 42.49619 6.11018 21298 ft 423 kts 287°
2026-05-04 05:09 42.50583 6.07259 21074 ft 421 kts 287°
2026-05-04 05:10 42.51542 6.03518 20848 ft 419 kts 287°
2026-05-04 05:10 42.52499 5.99795 20628 ft 418 kts 287°
2026-05-04 05:10 42.53449 5.96106 20399 ft 417 kts 287°
2026-05-04 05:10 42.54403 5.92392 20179 ft 415 kts 287°
2026-05-04 05:11 42.55346 5.88704 19899 ft 415 kts 287°
2026-05-04 05:11 42.56271 5.85081 19420 ft 394 kts 287°
2026-05-04 05:11 42.57144 5.81662 19084 ft 385 kts 286°
2026-05-04 05:11 42.58015 5.78230 18755 ft 381 kts 286°
2026-05-04 05:12 42.58875 5.74830 18435 ft 381 kts 286°
2026-05-04 05:12 42.59730 5.71447 18075 ft 378 kts 286°
2026-05-04 05:12 42.60571 5.68134 17718 ft 375 kts 286°
2026-05-04 05:12 42.61429 5.64759 17345 ft 373 kts 287°
2026-05-04 05:13 42.62261 5.61478 16980 ft 371 kts 286°
2026-05-04 05:13 42.63100 5.58175 16621 ft 370 kts 287°
2026-05-04 05:13 42.63933 5.54880 16267 ft 367 kts 286°
2026-05-04 05:13 42.64758 5.51600 15912 ft 366 kts 286°
2026-05-04 05:14 42.65578 5.48331 15566 ft 365 kts 286°
2026-05-04 05:14 42.66391 5.45083 15222 ft 363 kts 286°
2026-05-04 05:14 42.67196 5.41845 14875 ft 361 kts 285°
2026-05-04 05:14 42.68000 5.38623 14547 ft 359 kts 286°
2026-05-04 05:15 42.68930 5.35477 14214 ft 361 kts 295°
2026-05-04 05:15 42.70283 5.32587 13881 ft 362 kts 304°
2026-05-04 05:15 42.72011 5.30098 13524 ft 364 kts 315°
2026-05-04 05:15 42.74072 5.28079 13156 ft 367 kts 326°
2026-05-04 05:16 42.76281 5.26330 12776 ft 367 kts 327°
2026-05-04 05:16 42.78481 5.24580 12432 ft 365 kts 326°
2026-05-04 05:16 42.80670 5.22836 12077 ft 364 kts 326°
2026-05-04 05:16 42.82852 5.21095 11721 ft 361 kts 326°
2026-05-04 05:17 42.84966 5.19410 11364 ft 342 kts 326°
2026-05-04 05:17 42.86963 5.17815 11022 ft 324 kts 325°
2026-05-04 05:17 42.88861 5.16293 10671 ft 310 kts 326°
2026-05-04 05:17 42.90708 5.14810 10360 ft 307 kts 325°
2026-05-04 05:18 42.92544 5.13329 10029 ft 306 kts 326°
2026-05-04 05:18 42.94440 5.12013 9657 ft 307 kts 334°
2026-05-04 05:18 42.96479 5.11113 9293 ft 309 kts 343°
2026-05-04 05:18 42.98558 5.10404 8997 ft 306 kts 343°
2026-05-04 05:19 43.00546 5.09723 8730 ft 289 kts 342°
2026-05-04 05:19 43.02439 5.09071 8502 ft 272 kts 343°
2026-05-04 05:19 43.04232 5.08447 8269 ft 261 kts 342°
2026-05-04 05:19 43.05996 5.07829 8042 ft 262 kts 342°
2026-05-04 05:20 43.07754 5.07212 7818 ft 261 kts 342°
2026-05-04 05:20 43.09508 5.06597 7592 ft 259 kts 342°
2026-05-04 05:20 43.10666 5.06190 7450 ft 258 kts 342°
2026-05-04 05:20 43.12394 5.05584 7237 ft 257 kts 342°
2026-05-04 05:21 43.14146 5.04970 7015 ft 260 kts 341°
2026-05-04 05:21 43.15901 5.04354 6739 ft 260 kts 341°
2026-05-04 05:21 43.17655 5.03740 6457 ft 259 kts 341°
2026-05-04 05:21 43.19397 5.03131 6142 ft 257 kts 342°
2026-05-04 05:22 43.21151 5.02683 5839 ft 257 kts 352°
2026-05-04 05:22 43.22945 5.02553 5541 ft 257 kts 354°
2026-05-04 05:22 43.24729 5.02427 5239 ft 258 kts 354°
2026-05-04 05:22 43.26527 5.02297 4942 ft 258 kts 354°
2026-05-04 05:23 43.28320 5.02165 4640 ft 256 kts 355°
2026-05-04 05:23 43.30100 5.02031 4328 ft 255 kts 355°
2026-05-04 05:23 43.31877 5.01897 4026 ft 256 kts 356°
2026-05-04 05:23 43.33652 5.01790 3736 ft 252 kts
2026-05-04 05:24 43.35378 5.01868 3432 ft 243 kts
2026-05-04 05:24 43.37023 5.01947 3129 ft 236 kts
2026-05-04 05:24 43.38648 5.02021 2854 ft 225 kts
2026-05-04 05:24 43.40162 5.02061 2534 ft 215 kts
2026-05-04 05:25 43.41642 5.02076 2232 ft 204 kts
2026-05-04 05:25 43.42982 5.02047 2006 ft 183 kts
2026-05-04 05:25 43.44095 5.02360 1976 ft 151 kts 44°
2026-05-04 05:25 43.45004 5.03090 1925 ft 151 kts 41°
2026-05-04 05:26 43.45929 5.03753 1668 ft 149 kts 34°
2026-05-04 05:26 43.46833 5.04426 1513 ft 145 kts 39°
2026-05-04 05:26 43.47695 5.05134 1645 ft 143 kts 47°
2026-05-04 05:26 43.48471 5.05957 1760 ft 142 kts 52°
2026-05-04 05:27 43.49212 5.06826 1842 ft 138 kts 58°
2026-05-04 05:28 43.48941 5.14158 1441 ft 130 kts 134°
2026-05-04 05:29 43.48279 5.15007 1150 ft 130 kts 134°
2026-05-04 05:29 43.47645 5.15894 918 ft 131 kts 135°
2026-05-04 05:29 43.47006 5.16784 745 ft 129 kts 130°
2026-05-04 05:29 43.46371 5.17665 538 ft 130 kts 131°
2026-05-04 05:31 43.43434 5.21848 47 ft 48 kts 132°
2026-05-04 05:31 43.43331 5.22065 52 ft 21 kts 90°
2026-05-04 05:32 43.43362 5.22266 54 ft 18 kts 36°
2026-05-04 05:32 43.43480 5.22233 51 ft 19 kts 329°
2026-05-04 05:32 43.43571 5.22162 48 ft 14 kts 331°
2026-05-04 05:33 43.43674 5.22101 46 ft 7 kts 30°
2026-05-04 05:33 43.43726 5.22190 46 ft 10 kts 50°
2026-05-04 05:33 43.43728 5.22193 46 ft 0 kts 50°
2026-05-04 05:33 43.43700 5.22148 46 ft 8 kts 40°
2026-05-04 05:34 43.43663 5.22103 46 ft 8 kts
2026-05-04 05:34 43.43631 5.22113 45 ft 1 kts 330°
2026-05-04 05:34 43.43700 5.22058 45 ft 19 kts 330°
2026-05-04 05:34 43.43811 5.22068 43 ft 17 kts 43°
2026-05-04 05:35 43.43865 5.22147 43 ft 10 kts 69°
2026-05-04 05:35 43.43866 5.22161 43 ft 0 kts 84°
2026-05-04 05:35 43.43866 5.22165 43 ft 3 kts 84°
2026-05-04 05:35 43.43859 5.22218 44 ft 7 kts 65°
2026-05-04 05:36 43.43879 5.22242 44 ft 2 kts 45°
2026-05-04 05:36 43.43914 5.22279 44 ft 0 kts 30°
2026-05-04 05:36 43.43923 5.22286 44 ft 0 kts 29°